This is the latest recevied weather packets stored in our database for station/object N7CW. If no packets are shown the sender has not sent any weather packets the latest 10 day(s).
| Time | Temp. | Humidity | Pressure | Rain* | Wind** | Luminosity | Snow |
|---|---|---|---|---|---|---|---|
| 1777380200 | 0.56° C | 69% | 1017.5 hPa | 0 mm | - | 4 W/m² | - |
| 1777379896 | 0° C | 70% | 1017.5 hPa | 0 mm | - | 2 W/m² | - |
| 1777379592 | 0° C | 71% | 1017.4 hPa | 0 mm | - | 1 W/m² | - |
| 1777379289 | 0.56° C | 69% | 1017.4 hPa | 0 mm | - | 0 W/m² | - |
| 1777378988 | 0.56° C | 70% | 1017.3 hPa | 0 mm | - | 0 W/m² | - |
| 1777378684 | 0° C | 70% | 1017.2 hPa | 0 mm | - | 0 W/m² | - |
| 1777378380 | 0° C | 70% | 1017.1 hPa | 0 mm | - | 0 W/m² | - |
| 1777378075 | 0° C | 71% | 1017.2 hPa | 0 mm | - | 0 W/m² | - |
| 1777377770 | -0.56° C | 72% | 1017.2 hPa | 0 mm | - | 0 W/m² | - |
| 1777377464 | -0.56° C | 71% | 1017.1 hPa | 0 mm | - | 0 W/m² | - |
| 1777377160 | 0° C | 70% | 1017.1 hPa | 0 mm | - | 0 W/m² | - |
| 1777376857 | 0° C | 69% | 1017 hPa | 0 mm | - | 0 W/m² | - |
| 1777376555 | 0° C | 69% | 1016.8 hPa | 0 mm | - | 0 W/m² | - |
| 1777376251 | 0° C | 69% | 1017 hPa | 0 mm | - | 0 W/m² | - |
| 1777375946 | 0° C | 69% | 1016.8 hPa | 0 mm | - | 0 W/m² | - |
| 1777375640 | 0° C | 70% | 1017 hPa | 0 mm | - | 0 W/m² | - |
| 1777375336 | 0° C | 68% | 1016.8 hPa | 0 mm | - | 0 W/m² | - |
| 1777375033 | 0.56° C | 67% | 1017 hPa | 0 mm | - | 0 W/m² | - |
| 1777374728 | 1.11° C | 66% | 1017.2 hPa | 0 mm | - | 0 W/m² | - |
| 1777374424 | 1.67° C | 64% | 1017 hPa | 0 mm | - | 0 W/m² | - |
| 1777374122 | 1.67° C | 64% | 1016.7 hPa | 0 mm | - | 0 W/m² | - |
| 1777373816 | 1.11° C | 66% | 1016.8 hPa | 0 mm | - | 0 W/m² | - |
| 1777373510 | 1.11° C | 67% | 1017.1 hPa | 0 mm | - | 0 W/m² | - |
| 1777373210 | 1.11° C | 65% | 1017 hPa | 0 mm | - | 0 W/m² | - |
| 1777372905 | 1.11° C | 66% | 1016.7 hPa | 0 mm | - | 0 W/m² | - |
* Rain latest hour (hover to see other rain measurements)
** Current wind speed in m/s (hover to see current wind gust speed)